Showing default

OPS 9316 (IDSCS 6), 2220

Orbit data source: Space-Track

OPS 9316 (IDSCS 6), 2220 is a payload satellite owned by USAF SSD (US) in GEO that was launched on Thu, 16 Jun 1966 UTC via a TITAN IIIC launch vehicle from the Air Force Eastern Test Range (AFETR). Payload-class satellites include a variety of spacecraft equipped with specific instruments for various scientific and technological missions. These include communications satellites like Starlink; space stations such as the ISS; scientific satellites like the Hubble; Earth observation satellites from companies like Planet Labs, Umbra, and HawkEye 360; GPS; miniature CubeSats for education and research; and military/defense satellites.

Not visible in the next 10 days
Identifier
2220, 1966-053G
Orbit
GEO
Country
Flag of USUS
Related business
Manufacturer
Philco-Ford WDL
Mission
Non-operational spacecraft
Bus & Motor
IDCSP, Unknown motor
Mass
45 kg wet, 45 kg dry
Launch date (UTC)
1966-06-16 (60 years ago)
Launch vehicle
TITAN IIIC
Launch site
Air Force Eastern Test Range (AFETR)
Object type
Payload
Rocket body
Debris
Shape & HBR
Unknown
Radar Cross Section
Medium (>0.1 m² and <1 m²)

Expand to show TLE details & history
Last TLE update: 5 days ago

TLE from 5 days ago
0 OPS 9316 (IDSCS 6)
1 02220U 66053G   26068.09573491 -.00000122  00000-0  00000-0 0  9992
2 02220   8.2801  47.0726 0065707 181.2739 231.4402  1.07157180137983
Epoch: 2026-03-09T02:17Z
TLE epoch observation values (Epoch: 2026-03-09T02:17:51.496Z)
Latitude
6.52017°
Longitude
-102.3371°
Altitude
34,124.543 km
Speed
3.131 km/s
True Right ascension
06h 35m 41s
True Declination
6° 30' 48"
Sunlit
Object was in daylight at epoch
Visualization orbit readout
Latitude
Unknown
Longitude
Unknown
Altitude
Unknown
Speed
Unknown
Apparent Right ascension
Unknown
Apparent Declination
Unknown
Sunlit
N/A
Visualization observer readout
Local Sidereal Time
00:40:31
Azimuth
Unknown
Elevation
Unknown
Doppler factor
Unknown
Orbital elements
Apogee altitude
34,226.621 km
Perigee altitude
33,696.501 km
Semi-major axis
40,339.698 km
Eccentricity
0.00657
Inclination
8.2801°
RAAN
47.0726°
Arg. of periapsis
181.2739°
True anomaly
230.85444°
Mean anomaly
231.4402°
Eccentric anomaly
231.14702°
Mean motion
0.26788 °/min
Orbital period
1,343.87 mins
BSTAR
0
Loading maneuver chart data...
Computing Atmospheric mass density...
Loading historical data...
Loading historical data...
Loading historical data...
Loading historical data...
Loading historical data...
Loading historical data...
Loading historical data...

Documentation

Showing up to 5 results
|